This is the latest recevied weather packets stored in our database for station/object KI4BIY. If no packets are shown the sender has not sent any weather packets the latest 10 day(s).
| Time | Temp. | Humidity | Pressure | Rain* | Wind** | Luminosity | Snow |
|---|---|---|---|---|---|---|---|
| 1778354652 | 28.33° C | 40% | 1010 hPa | 0 mm | - | 671 W/m² | - |
| 1778354347 | 28.89° C | 45% | 1010 hPa | 0 mm | - | 628 W/m² | - |
| 1778354043 | 28.89° C | 44% | 1010 hPa | 0 mm | - | 597 W/m² | - |
| 1778353739 | 29.44° C | 38% | 1010.1 hPa | 0 mm | - | 663 W/m² | - |
| 1778353436 | 28.89° C | 39% | 1010.2 hPa | 0 mm | - | 609 W/m² | - |
| 1778353134 | 28.89° C | 45% | 1009.9 hPa | 0 mm | - | 577 W/m² | - |
| 1778352830 | 28.89° C | 46% | 1010.2 hPa | 0 mm | - | 568 W/m² | - |
| 1778352527 | 28.33° C | 48% | 1010.2 hPa | 0 mm | - | 644 W/m² | - |
| 1778352224 | 28.33° C | 47% | 1010.3 hPa | 0 mm | - | 718 W/m² | - |
| 1778351921 | 28.89° C | 45% | 1010.3 hPa | 0 mm | - | 713 W/m² | - |
| 1778351616 | 27.78° C | 52% | 1010.5 hPa | 0 mm | - | 722 W/m² | - |
| 1778351312 | 28.33° C | 49% | 1010.4 hPa | 0 mm | - | 736 W/m² | - |
| 1778351009 | 28.89° C | 47% | 1010.4 hPa | 0 mm | - | 756 W/m² | - |
| 1778350707 | 27.78° C | 49% | 1010.5 hPa | 0 mm | - | 753 W/m² | - |
| 1778350404 | 27.78° C | 49% | 1010.6 hPa | 0 mm | - | 752 W/m² | - |
| 1778350101 | 28.33° C | 49% | 1010.5 hPa | 0 mm | - | 706 W/m² | - |
| 1778349797 | 28.89° C | 48% | 1010.6 hPa | 0 mm | - | 662 W/m² | - |
| 1778349494 | 28.33° C | 51% | 1010.4 hPa | 0 mm | - | 628 W/m² | - |
| 1778349190 | 27.78° C | 49% | 1010.7 hPa | 0 mm | - | 680 W/m² | - |
| 1778348886 | 28.33° C | 51% | 1010.7 hPa | 0 mm | - | 766 W/m² | - |
| 1778348582 | 28.89° C | 49% | 1010.6 hPa | 0 mm | - | 764 W/m² | - |
| 1778348278 | 27.78° C | 48% | 1010.8 hPa | 0 mm | - | 744 W/m² | - |
| 1778347974 | 27.78° C | 50% | 1010.6 hPa | 0 mm | - | 733 W/m² | - |
| 1778347670 | 28.33° C | 49% | 1010.6 hPa | 0 mm | - | 714 W/m² | - |
| 1778347367 | 28.33° C | 51% | 1010.7 hPa | 0 mm | - | 735 W/m² | - |
* Rain latest hour (hover to see other rain measurements)
** Current wind speed in m/s (hover to see current wind gust speed)